TimePDT,TemperatureF,Dew PointF,Humidity,Sea Level PressureIn,VisibilityMPH,Wind Direction,Wind SpeedMPH,Gust SpeedMPH,PrecipitationIn,Events,Conditions,WindDirDegrees,DateUTC
12:53 AM,71.1,59.0,66,30.03,10.0,West,8.1,-,N/A,,Clear,270,2013-08-30 07:53:00
1:53 AM,69.1,59.0,70,30.04,10.0,WNW,8.1,-,N/A,,Partly Cloudy,300,2013-08-30 08:53:00
2:53 AM,68.0,59.0,73,30.04,10.0,West,8.1,-,N/A,,Mostly Cloudy,270,2013-08-30 09:53:00
3:53 AM,68.0,60.1,76,30.06,10.0,West,4.6,-,N/A,,Mostly Cloudy,260,2013-08-30 10:53:00
4:53 AM,64.9,57.9,78,30.07,10.0,WSW,5.8,-,N/A,,Mostly Cloudy,250,2013-08-30 11:53:00
5:53 AM,66.9,57.9,73,30.09,10.0,West,5.8,-,N/A,,Overcast,260,2013-08-30 12:53:00
6:53 AM,64.0,57.9,80,30.10,10.0,ESE,4.6,-,N/A,,Scattered Clouds,120,2013-08-30 13:53:00
7:53 AM,70.0,59.0,68,30.11,10.0,Calm,Calm,-,N/A,,Clear,0,2013-08-30 14:53:00
8:53 AM,73.0,57.9,59,30.11,10.0,WNW,10.4,-,N/A,,Clear,300,2013-08-30 15:53:00
9:53 AM,75.9,55.9,50,30.11,10.0,NNW,17.3,21.9,N/A,,Partly Cloudy,340,2013-08-30 16:53:00
10:53 AM,78.1,55.9,46,30.11,10.0,NNW,16.1,24.2,N/A,,Clear,330,2013-08-30 17:53:00
11:53 AM,79.0,55.9,45,30.09,10.0,NNW,17.3,25.3,N/A,,Clear,330,2013-08-30 18:53:00
12:53 PM,82.0,55.0,39,30.07,10.0,NW,13.8,-,N/A,,Clear,320,2013-08-30 19:53:00
1:53 PM,84.0,54.0,35,30.06,10.0,NNW,16.1,20.7,N/A,,Clear,330,2013-08-30 20:53:00
2:53 PM,84.9,53.1,33,30.04,10.0,NNW,9.2,17.3,N/A,,Clear,340,2013-08-30 21:53:00
3:53 PM,86.0,51.1,30,30.02,10.0,NW,11.5,20.7,N/A,,Clear,320,2013-08-30 22:53:00
4:53 PM,84.9,52.0,32,30.00,10.0,NW,13.8,-,N/A,,Clear,310,2013-08-30 23:53:00
5:53 PM,84.0,53.1,34,29.99,10.0,WNW,13.8,-,N/A,,Clear,290,2013-08-31 00:53:00
6:53 PM,82.0,52.0,35,29.98,10.0,West,9.2,-,N/A,,Clear,280,2013-08-31 01:53:00
7:53 PM,78.1,53.1,42,29.98,10.0,West,12.7,-,N/A,,Clear,280,2013-08-31 02:53:00
8:53 PM,75.0,54.0,48,30.00,10.0,West,4.6,-,N/A,,Clear,260,2013-08-31 03:53:00
9:53 PM,73.0,55.0,53,30.01,10.0,WNW,3.5,-,N/A,,Clear,300,2013-08-31 04:53:00
10:53 PM,73.0,55.0,53,30.01,10.0,Calm,Calm,-,N/A,,Clear,0,2013-08-31 05:53:00
11:53 PM,71.1,55.9,59,30.01,10.0,NNW,10.4,-,N/A,,Clear,330,2013-08-31 06:53:00